User: anonymous   Login
Location: Buisson
(44.2787°N, 4.9969°E)
Time: 05:29:37
(UTC+00:00)
Language:

FALCON 9 DEB - Orbit

View from above orbital plane
View from above orbital plane
View from above satellite
View from above satellite

Ground track
Ground track

The orbit data is extracted from the following two-line orbital elements,

1 46084U 20055BK  21171.32983337  .00010264  00000-0  10990-3 0  9999
2 46084  53.0117 184.5448 0009938 261.9697  98.0189 15.64506080 54115
Epoch (UTC): 20 June 2021 07:54:57
Eccentricity: 0.0009938
inclination: 53.0117°
perigee height: 368 km
apogee height: 381 km
right ascension of ascending node: 184.5448°
argument of perigee: 261.9697°
revolutions per day: 15.64506080
mean anomaly at epoch: 98.0189°
orbit number at epoch: 5411

The dashed part of the orbit path shows where the satellite is in the earth's shadow,  

DLR